Sally Plumb Plumb

Freshman - 519 Points (23 9 1940 / Haverhill Suffolk England)

Stats

» Click to list general statistics » OR, select a date :

General Statistics

Visitors of the poet

Number of visitors of the poet’s mainpage in PoemHunter.Com

Attention : Numbers in this table does not indicate the total hits of poems of the poet, but indicates the hits of the poet’s main page.

Date Hits
03/28/2015 Saturday 157
100%
03/27/2015 Friday 121
77%
03/26/2015 Thursday 58
36%
03/25/2015 Wednesday 61
38%
03/24/2015 Tuesday 87
55%
03/23/2015 Monday 74
47%
03/22/2015 Sunday 84
53%
03/21/2015 Saturday 82
52%
03/20/2015 Friday 89
56%
03/19/2015 Thursday 115
73%
03/18/2015 Wednesday 82
52%
03/17/2015 Tuesday 89
56%
03/16/2015 Monday 121
77%
03/15/2015 Sunday 141
89%
03/14/2015 Saturday 51
32%
03/13/2015 Friday 86
54%
03/12/2015 Thursday 76
48%
03/11/2015 Wednesday 73
46%
03/10/2015 Tuesday 81
51%
03/09/2015 Monday 70
44%

Reader rating & num.of MyPoemList’s

Click the captions of columns to change the order.

# Poem Title Submit Date Reader Rating Num.of MyPoemList’s
Rating Num.R.
1 Nightwatch 11/04/2014 10.0 1 0
2 A Boy And A Frog (Kids Stuff) 10/23/2014 -- 0 1
3 The Slow Walk 08/09/2014 10.0 1 0
4 After 08/08/2014 -- 0 0
5 The Contest 06/05/2014 -- 0 0
6 Barn Owl 05/09/2014 10.0 1 0
7 Listen 05/08/2014 -- 0 0
8 Harmony 05/07/2014 10.0 1 0
9 Conflict 02/24/2014 10.0 2 0
10 Confession 02/11/2014 -- 0 0
11 Night Bird 02/07/2014 -- 0 0
12 Ebb Tide 02/03/2014 10.0 1 0
13 Many Hollows 01/03/2014 7.5 2 0
14 Night Ways 01/02/2014 -- 0 0
15 The Lion 01/01/2014 7.0 1 0
16 The Appointment 12/24/2013 -- 0 0
17 Flippancy 12/22/2013 9.0 2 0
18 Hit 12/21/2013 10.0 1 0
19 Negativity 11/11/2013 10.0 2 0
20 Too Old 10/28/2013 10.0 3 0
21 Three Phases 09/28/2013 10.0 1 0
22 Frightened Fourteen (Kids Stuff) 09/27/2013 10.0 1 0
23 Killing Time 09/23/2013 8.5 2 0
24 Rumour 08/30/2013 -- 0 0
25 Separation 08/14/2013 10.0 3 2
26 Shades Of Love 08/01/2013 10.0 4 1
27 Getting Fat 06/28/2013 9.7 3 0
28 Infinity 05/08/2013 9.9 9 1
29 Twilight 03/30/2013 10.0 4 2
30 Mind Healer 03/19/2013 9.5 2 0
31 Mute 03/18/2013 9.5 4 0
32 Down The Drain 03/07/2013 9.7 3 0
33 Monday Morning 03/06/2013 10.0 1 0
34 Imagination 03/05/2013 10.0 1 0
35 Earth Fire 12/08/2012 10.0 1 0
36 Nightmare 10/20/2012 10.0 2 0
37 Workday Weekday 10/17/2012 -- 0 0
38 Remorse 10/07/2012 -- 0 0
39 High Hopes 10/06/2012 -- 0 0
40 Lost For Words 10/04/2012 10.0 1 0
41 Confused? 08/15/2012 -- 0 0
42 Breakdown 08/14/2012 10.0 4 0
43 Departure 08/07/2012 10.0 2 0
44 Seagull 07/11/2012 10.0 4 0
45 Late Friday Night 06/29/2012 9.7 3 0
46 Rig Divers North Sea 06/28/2012 -- 0 0
47 Gossips 06/27/2012 10.0 3 0
48 Another Shade Of Blue 06/27/2012 10.0 5 1
49 Score 04/22/2012 10.0 2 0
50 Request 04/21/2012 10.0 1 0
51 Tough Love 04/18/2012 10.0 3 0
52 Stairway 03/23/2012 10.0 1 0
53 Wind And Rain 02/20/2012 10.0 3 0
54 Dawn 02/09/2012 -- 0 0
55 Defeat 02/08/2012 10.0 2 0
56 Jack Spratt 12/27/2011 9.7 3 0
57 Beyond 12/06/2011 -- 0 0
58 Undressed 12/05/2011 -- 0 0
59 Letter 11/28/2011 10.0 1 0
60 Fantasia 11/24/2011 -- 0 0
61 Betrayel 11/22/2011 -- 0 0
62 Grandmama 11/21/2011 -- 0 0
63 Crimes 11/01/2011 9.7 3 0
64 Swing High Swing Low 10/07/2011 10.0 1 1
65 Destiny 10/05/2011 10.0 1 0
66 Silken Thread 10/02/2011 -- 0 0
67 Seeing You 10/01/2011 10.0 1 0
68 Fractions 09/30/2011 -- 0 0
69 Question 09/28/2011 -- 0 0
70 Birth 09/09/2011 -- 0 0
71 The Voice Of Seduction 09/07/2011 -- 0 0
72 Second Depression 08/10/2011 -- 0 0
73 Crumbs 08/06/2011 10.0 1 0
74 Night Sky 07/08/2011 9.0 2 0
75 The Social Divide 07/04/2011 -- 0 0
76 Retort 07/01/2011 10.0 1 0
77 Mr Jones 06/15/2011 -- 0 0
78 Bitter Beginning 06/13/2011 -- 0 0
79 Imagine 06/03/2011 -- 0 0
80 Gabriel 06/02/2011 -- 0 0
81 The Shift Worker 05/25/2011 8.0 1 0
82 Downtown 05/20/2011 -- 0 0
83 Skin 05/19/2011 -- 0 0
84 Natural Tempo 05/18/2011 10.0 2 0
85 Magical Night 04/14/2011 10.0 1 0
86 Conversation 04/12/2011 -- 0 0
87 Aunt Summer Rose (kids stuff) 04/08/2011 -- 0 0
88 Eden's Gate 04/07/2011 -- 0 0
89 First Season 03/29/2011 -- 0 0
90 November 03/09/2011 10.0 1 0
91 Chores 03/08/2011 10.0 1 0
92 Torment 03/05/2011 -- 0 0
93 Over Time 02/19/2011 -- 0 0
94 The Thaw 02/18/2011 10.0 1 0
95 Jukes Song 02/14/2011 -- 0 0
96 Thinks Party 02/12/2011 10.0 2 1
97 Predator 02/11/2011 -- 0 0
98 Headless 02/08/2011 6.0 1 0
99 Annie May 01/06/2011 10.0 1 0
100 Look 01/05/2011 -- 0 0
101 Slough Of Despond 12/11/2010 10.0 2 0
102 The Dryad 12/04/2010 -- 0 0
103 Christmas Day 12/03/2010 10.0 1 0
104 Snake Skin 12/01/2010 10.0 1 0
105 Opposition 11/12/2010 -- 0 0
106 Natures Way 10/13/2010 -- 0 0
107 Bad Rivers 10/12/2010 10.0 3 0
108 Calling Wind 10/01/2010 9.8 4 0
109 Decision 09/23/2010 10.0 1 0
110 Passing Tedious Time 08/26/2010 -- 0 0
111 Zero 08/10/2010 10.0 3 0
112 1957 08/04/2010 9.5 4 0
113 Singing Lesson 08/02/2010 -- 0 0
114 Evening At Home 06/29/2010 10.0 2 0
115 Not Tonight 06/28/2010 -- 0 0
116 6 P.M. 06/08/2010 9.5 2 0
117 Orange 06/01/2010 10.0 1 0
118 Yellow Iris 05/23/2010 10.0 1 0
119 Shower 05/22/2010 -- 0 0
120 Reunion 05/17/2010 -- 0 0
121 Shadow 05/16/2010 10.0 1 0
122 Explanation 05/15/2010 -- 0 0
123 Spirit 05/14/2010 10.0 2 1
124 The Haunted 05/13/2010 10.0 1 0
125 Live Music 05/13/2010 10.0 1 0
126 Wren 03/13/2010 10.0 1 0
127 Spring Weather 03/12/2010 -- 0 0
128 Breathing 02/09/2010 10.0 3 1
129 Unfamiliar Fantasy 01/22/2010 10.0 1 0
130 Climate Change 12/26/2009 10.0 1 0
131 Missing Person 12/25/2009 -- 0 0
132 Languor 12/24/2009 10.0 1 0
133 Side Affects 12/23/2009 10.0 2 0
134 Unspeakable 12/22/2009 10.0 1 0
135 Summer 12/14/2009 10.0 1 0
136 High 12/12/2009 -- 0 0
137 Speechless 12/05/2009 10.0 2 1
138 Insight 11/14/2009 10.0 3 0
139 The Haunted Sea (kids stuff) 11/05/2009 10.0 2 0
140 Flight 10/15/2009 10.0 3 0
141 Ripple 10/09/2009 10.0 1 0
142 Perfect Silence 10/07/2009 8.9 7 1
143 Starters 10/02/2009 10.0 1 0
144 Pastel 09/24/2009 10.0 3 0
145 Sleep 09/18/2009 10.0 4 0
146 Spirit Wings 09/07/2009 10.0 1 0
147 Annoyance 09/05/2009 10.0 3 0
148 Lyric 09/02/2009 10.0 3 0
149 Weeping Willow 08/29/2009 9.5 2 3
150 Ritual 08/12/2009 10.0 1 0
151 Enrichment 08/10/2009 10.0 1 0
152 Recruit 07/30/2009 10.0 1 0
153 Bebe 07/29/2009 10.0 3 1
154 Music 07/28/2009 10.0 2 0
155 Saturday Night and Sunday Morning 07/22/2009 -- 0 1
156 The Red Indian 07/10/2009 10.0 1 0
157 Be Kind Be Sweet 07/08/2009 9.5 2 1
158 Late Afternoon 07/07/2009 10.0 1 0
159 Left Undead 07/06/2009 -- 0 0
160 Cloud 07/02/2009 10.0 3 2
161 Foxglove 06/28/2009 10.0 1 0
162 The Chain 06/17/2009 -- 0 0
163 Song Of A Dying Infant 06/03/2009 10.0 1 0
164 Confrontation (Darfur) 05/29/2009 10.0 5 0
165 Late Summer 05/18/2009 -- 0 1
166 A Question Of God 05/17/2009 9.6 10 1
167 Death Of A Woman 05/12/2009 10.0 3 0
168 Angels 05/09/2009 10.0 6 1
169 A Dark Fire 05/08/2009 10.0 6 1
170 Fight 05/07/2009 10.0 2 0
171 We Are 05/06/2009 10.0 3 0
172 Shadow Street 05/05/2009 7.3 3 0
173 Rendezvous 05/04/2009 9.5 2 0
174 Lifting 05/03/2009 10.0 1 0
175 A Humorous Death 05/02/2009 10.0 10 3
176 Thought 05/01/2009 9.5 4 0
177 Leaving 04/30/2009 -- 0 0
178 The Queue 04/29/2009 10.0 1 0
179 Granpa 04/28/2009 10.0 1 0
180 Two Confused 04/27/2009 10.0 1 1
181 Breakfast 04/26/2009 9.7 7 1
182 Happiness Is Sacred 04/25/2009 10.0 1 0
183 Crucible 04/24/2009 9.7 3 0
184 Valentine 04/23/2009 10.0 2 1
185 Hettie 04/06/2009 10.0 2 0
186 SIX A.M. 04/04/2009 -- 0 0
187 Diary 04/01/2009 9.3 3 2
188 Possession 03/31/2009 10.0 1 1
189 Pretence 03/30/2009 10.0 1 1
190 Sundial 03/29/2009 7.5 4 0
191 Sleep My Love 03/28/2009 10.0 2 2
192 Reynard 03/27/2009 -- 0 0
193 Lucifer 03/26/2009 -- 0 0
194 Picture 03/25/2009 10.0 1 2
195 Dream On 03/24/2009 10.0 1 2
196 Something Plus 03/23/2009 -- 0 1
197 Love 03/22/2009 10.0 1 0
198 Curse 03/21/2009 -- 0 0
199 Solitude 03/20/2009 10.0 1 1
200 Anger 03/19/2009 10.0 2 2
201 Moon Song 03/18/2009 10.0 2 2
202 Winter 03/15/2009 9.8 5 1
203 Summer Shade 03/15/2009 9.0 2 1
204 Skylark 03/15/2009 10.0 1 0
205 Simplicity 03/14/2009 10.0 1 0
206 Snowdrops 03/14/2009 10.0 1 1
207 Upside Down 03/14/2009 10.0 2 0
208 The Native 03/14/2009 10.0 1 0
209 Search 03/14/2009 10.0 2 0
210 Surprise Suprise 03/14/2009 10.0 1 0
211 Changeover 03/14/2009 10.0 3 1
212 He Is 03/14/2009 10.0 3 0
213 Guide 03/14/2009 10.0 2 1
214 Vow 03/14/2009 10.0 3 0
215 Cats 03/14/2009 9.5 2 1
216 Love After Death 03/14/2009 10.0 1 1
217 The Juveniles 03/14/2009 10.0 2 0
218 Serenade 03/14/2009 10.0 1 0
219 Poppies 03/14/2009 10.0 2 0
220 May 03/14/2009 10.0 1 0
221 Village Tree 03/14/2009 9.5 2 0
222 Sunrise 03/14/2009 10.0 2 1
223 Sparrows 03/14/2009 10.0 3 0
224 Figment 03/14/2009 10.0 2 1
225 A Slow Smoke 03/14/2009 9.8 4 1
226 Time Past 03/14/2009 10.0 2 2
227 Good Night 03/14/2009 10.0 2 1
228 The Satyr 03/14/2009 10.0 1 0
229 Somewhere 03/14/2009 10.0 1 1
230 Formation 03/14/2009 -- 0 1
231 Wildflowers Live On 03/14/2009 10.0 4 2
232 Apple Tree 03/14/2009 10.0 7 2
233 Purer Than White 03/14/2009 10.0 2 0
234 Goodnight Baby Love 03/14/2009 10.0 1 1
235 Storm 03/14/2009 10.0 1 2
236 Headstones 03/14/2009 10.0 1 0
237 Underfoot 03/14/2009 10.0 1 0
238 Fantasy 03/14/2009 10.0 3 1
239 Smile 03/14/2009 10.0 2 2
240 Judas 03/14/2009 10.0 1 0
241 Domestic 03/14/2009 10.0 2 0
242 Ghost 03/14/2009 10.0 2 2
243 Rowley 03/14/2009 -- 0 0
244 Starless 03/14/2009 10.0 2 2
245 Reflection 03/14/2009 -- 0 2
246 Pretty 03/14/2009 9.0 2 1
[Hata Bildir]